Weather History for Silver Bay, MN

Change the Weather History Date:

Saturday, August 3, 2013

  Actual Average Record
Temperature  
Mean Temperature 56 °F -  
Max Temperature 69 °F 72 °F 89 °F (2010)
Min Temperature 42 °F 46 °F 42 °F (2013)
Degree Days  
Heating Degree Days 10    
Growing Degree Days 6 (Base 50)    
Moisture  
Dew Point 45 °F    
Average Humidity 66    
Maximum Humidity 93    
Minimum Humidity 40    
Precipitation  
Precipitation 0.00 in - - ()
Sea Level Pressure  
Sea Level Pressure 30.10 in    
Wind  
Wind Speed 1 mph (NNW)    
Max Wind Speed 8 mph    
Max Gust Speed -    
Visibility 10 miles    
Events      
Averages and records for this station are not official NWS values.
T = Trace of Precipitation, MM = Missing Value Source: NWS Daily Summary

Daily Weather History Graph

Daily Weather History Graph

Search for Another Location

Airport:

Trip Planner

Search our weather history database for the weather conditions in past years. The results will help you decide how hot, cold, wet, or windy it might be!

Date:

Astronomy

Aug. 03, 2013 Rise Set
Actual Time 5:47 AM CDT 8:35 PM CDT
Civil Twilight 5:11 AM CDT 9:10 PM CDT
Nautical Twilight 4:26 AM CDT 9:55 PM CDT
Astronomical Twilight 3:32 AM CDT 10:48 PM CDT
Moon 2:54 AM CDT (8/3) 6:20 PM CDT (8/3)
Length of Visible Light 15h 59m
Length of Day
14h 48m
Waning Crescent, 9% of the Moon is Illuminated
Aug 3
Waning Crescent
Aug 6
New
Aug 14
First Quarter
Aug 20
Full
Aug 28
Last Quarter

Hourly Weather History & Observations

Time (CDT) Temp. Dew Point Humidity Pressure Visibility Wind Dir Wind Speed Gust Speed Precip Events Conditions
12:13 AM 48.2 °F 44.6 °F 87% 30.02 in 10.0 mi Calm Calm - N/A   Clear
12:33 AM 46.4 °F 44.6 °F 93% 30.02 in 10.0 mi Calm Calm - N/A   Clear
12:53 AM 46.4 °F 44.6 °F 93% 30.02 in 10.0 mi Calm Calm - N/A   Clear
1:13 AM 46.4 °F 42.8 °F 87% 30.03 in 10.0 mi Calm Calm - N/A   Clear
1:33 AM 44.6 °F 41.0 °F 87% 30.03 in 10.0 mi Calm Calm - N/A   Clear
1:53 AM 44.6 °F 41.0 °F 87% 30.03 in 10.0 mi Calm Calm - N/A   Clear
2:13 AM 48.2 °F 44.6 °F 87% 30.03 in 10.0 mi Calm Calm - N/A   Clear
2:33 AM 48.2 °F 44.6 °F 87% 30.03 in 10.0 mi Calm Calm - N/A   Clear
2:53 AM 48.2 °F 44.6 °F 87% 30.03 in 10.0 mi Calm Calm - N/A   Clear
3:13 AM 50.0 °F 44.6 °F 82% 30.03 in 10.0 mi Calm Calm - N/A   Clear
3:33 AM 50.0 °F 44.6 °F 82% 30.03 in 10.0 mi Calm Calm - N/A   Clear
3:53 AM 51.8 °F 44.6 °F 76% 30.03 in 10.0 mi Calm Calm - N/A   Clear
4:13 AM 50.0 °F 44.6 °F 82% 30.03 in 10.0 mi Calm Calm - N/A   Clear
4:33 AM 48.2 °F 44.6 °F 87% 30.04 in 10.0 mi Calm Calm - N/A   Clear
4:53 AM 48.2 °F 44.6 °F 87% 30.04 in 10.0 mi Calm Calm - N/A   Clear
5:13 AM 48.2 °F 44.6 °F 87% 30.04 in 10.0 mi Calm Calm - N/A   Clear
5:33 AM 42.8 °F 39.2 °F 87% 30.05 in 10.0 mi Calm Calm - N/A   Clear
5:53 AM 44.6 °F 41.0 °F 87% 30.06 in 10.0 mi Calm Calm - N/A   Clear
6:13 AM 44.6 °F 41.0 °F 87% 30.06 in 10.0 mi Calm Calm - N/A   Clear
6:33 AM 51.8 °F 44.6 °F 76% 30.06 in 10.0 mi Calm Calm - N/A   Clear
6:53 AM 53.6 °F 46.4 °F 77% 30.07 in 10.0 mi Calm Calm - N/A   Clear
7:13 AM 55.4 °F 46.4 °F 72% 30.07 in 10.0 mi Calm Calm - N/A   Clear
7:33 AM 57.2 °F 46.4 °F 67% 30.07 in 10.0 mi Calm Calm - N/A   Clear
7:53 AM 59.0 °F 46.4 °F 63% 30.07 in 10.0 mi Calm Calm - N/A   Clear
8:13 AM 60.8 °F 46.4 °F 59% 30.07 in 10.0 mi Calm Calm - N/A   Clear
8:33 AM 60.8 °F 48.2 °F 63% 30.07 in 10.0 mi Calm Calm - N/A   Clear
8:53 AM 62.6 °F 48.2 °F 59% 30.07 in 10.0 mi Calm Calm - N/A   Clear
9:13 AM 62.6 °F 46.4 °F 55% 30.07 in 10.0 mi Calm Calm - N/A   Clear
9:34 AM 64.4 °F 46.4 °F 52% 30.08 in 10.0 mi Calm Calm - N/A   Clear
9:53 AM 64.4 °F 46.4 °F 52% 30.08 in 10.0 mi Calm Calm - N/A   Clear
10:13 AM 64.4 °F 46.4 °F 52% 30.09 in 10.0 mi NW 3.5 mph - N/A   Clear
10:33 AM 66.2 °F 44.6 °F 46% 30.10 in 10.0 mi Calm Calm - N/A   Clear
10:53 AM 66.2 °F 44.6 °F 46% 30.10 in 10.0 mi NNW 6.9 mph - N/A   Clear
11:13 AM 66.2 °F 46.4 °F 49% 30.10 in 10.0 mi Calm Calm - N/A   Clear
11:33 AM 64.4 °F 44.6 °F 49% 30.11 in 10.0 mi North 3.5 mph - N/A   Clear
11:53 AM 66.2 °F 44.6 °F 46% 30.10 in 10.0 mi NNW 6.9 mph - N/A   Clear
12:13 PM 66.2 °F 44.6 °F 46% 30.10 in 10.0 mi NNW 5.8 mph - N/A   Clear
12:33 PM 66.2 °F 46.4 °F 49% 30.10 in 10.0 mi NNW 3.5 mph - N/A   Clear
12:53 PM 69.8 °F 46.4 °F 43% 30.10 in 10.0 mi North 8.1 mph - N/A   Clear
1:13 PM 69.8 °F 44.6 °F 40% 30.11 in 10.0 mi NNW 6.9 mph - N/A   Clear
1:33 PM 69.8 °F 44.6 °F 40% 30.11 in 10.0 mi Calm Calm - N/A   Clear
1:53 PM 66.2 °F 44.6 °F 46% 30.11 in 10.0 mi NNW 3.5 mph - N/A   Clear
2:13 PM 66.2 °F 44.6 °F 46% 30.12 in 10.0 mi Calm Calm - N/A   Clear
2:33 PM 69.8 °F 44.6 °F 40% 30.12 in 10.0 mi NNW 8.1 mph - N/A   Clear
2:53 PM 66.2 °F 44.6 °F 46% 30.12 in 10.0 mi Calm Calm - N/A   Scattered Clouds
3:13 PM 68.0 °F 44.6 °F 43% 30.12 in 10.0 mi Calm Calm - N/A   Clear
3:33 PM 64.4 °F 46.4 °F 52% 30.12 in 10.0 mi Calm Calm - N/A   Scattered Clouds
3:53 PM 64.4 °F 46.4 °F 52% 30.13 in 10.0 mi Calm Calm - N/A   Scattered Clouds
4:13 PM 64.4 °F 46.4 °F 52% 30.13 in 10.0 mi Calm Calm - N/A   Clear
4:33 PM 66.2 °F 46.4 °F 49% 30.13 in 10.0 mi Calm Calm - N/A   Clear
4:53 PM 64.4 °F 46.4 °F 52% 30.13 in 10.0 mi Calm Calm - N/A   Clear
5:13 PM 64.4 °F 46.4 °F 52% 30.13 in 10.0 mi Calm Calm - N/A   Scattered Clouds
5:33 PM 64.4 °F 48.2 °F 56% 30.13 in 10.0 mi Calm Calm - N/A   Mostly Cloudy
5:53 PM 64.4 °F 46.4 °F 52% 30.13 in 10.0 mi Calm Calm - N/A   Scattered Clouds
6:13 PM 64.4 °F 44.6 °F 49% 30.14 in 10.0 mi Calm Calm - N/A   Scattered Clouds
6:33 PM 66.2 °F 44.6 °F 46% 30.14 in 10.0 mi Calm Calm - N/A   Mostly Cloudy
6:53 PM 68.0 °F 42.8 °F 40% 30.14 in 10.0 mi Calm Calm - N/A   Mostly Cloudy
7:13 PM 64.4 °F 44.6 °F 49% 30.14 in 10.0 mi Calm Calm - N/A   Mostly Cloudy
7:34 PM 64.4 °F 44.6 °F 49% 30.14 in 10.0 mi Calm Calm - N/A   Scattered Clouds
7:53 PM 62.6 °F 44.6 °F 52% 30.14 in 10.0 mi Calm Calm - N/A   Scattered Clouds
8:13 PM 60.8 °F 44.6 °F 55% 30.15 in 10.0 mi Calm Calm - N/A   Scattered Clouds
8:33 PM 57.2 °F 46.4 °F 67% 30.15 in 10.0 mi Calm Calm - N/A   Clear
8:53 PM 55.4 °F 46.4 °F 72% 30.16 in 10.0 mi Calm Calm - N/A   Clear
9:13 PM 53.6 °F 46.4 °F 77% 30.17 in 10.0 mi Calm Calm - N/A   Clear
9:33 PM 51.8 °F 46.4 °F 82% 30.17 in 10.0 mi Calm Calm - N/A   Clear
9:53 PM 51.8 °F 46.4 °F 82% 30.17 in 10.0 mi Calm Calm - N/A   Clear
10:13 PM 48.2 °F 44.6 °F 87% 30.18 in 10.0 mi Calm Calm - N/A   Clear
10:33 PM 48.2 °F 44.6 °F 87% 30.18 in 10.0 mi Calm Calm - N/A   Clear
10:53 PM 48.2 °F 44.6 °F 87% 30.19 in 10.0 mi Calm Calm - N/A   Clear
11:13 PM 46.4 °F 42.8 °F 87% 30.19 in 10.0 mi Calm Calm - N/A   Clear
11:33 PM 44.6 °F 41.0 °F 87% 30.19 in 10.0 mi Calm Calm - N/A   Clear
11:53 PM 46.4 °F 42.8 °F 87% 30.20 in 10.0 mi Calm Calm - N/A   Clear